| Temperature (°F) | Max | Average | Min |
|---|---|---|---|
| Max Temperature | 91 | 82.9 | 74 |
| Avg Temperature | 75.55 | 70.73 | 63.68 |
| Min Temperature | 71 | 61.13 | 51 |
| Precipitation (in) | Max | Average | Min | Sum |
|---|---|---|---|---|
| Precipitation | 6.23 | 0.39 | 0 | 12 |
| Dew Point (°F) | Max | Average | Min |
|---|---|---|---|
| Dew Point | 70.11 | 63.56 | 53.62 |
| Wind (mph) | Max | Average | Min |
|---|---|---|---|
| Wind | 24 | 10.35 | 3 |
| Gust Wind | 32 | 17.88 | 9 |
| Sea Level Pressure (in) | Max | Average | Min |
|---|---|---|---|
| Sea Level Pressure | 28.46 | 28.3 | 28.09 |
| Date | Temp High/Low | Dew Pt High/Low | Humidity | Wind | Max Wind | Wind Gust | Pressure | Precip. | Condition |
|---|---|---|---|---|---|---|---|---|---|
| 6/1/2021 | 80 °F / 52 °F | 57 °F / 50 °F | 71 % | 8 mph | - | 28.45 in | 0 in | ||
| 6/2/2021 | 76 °F / 54 °F | 64 °F / 54 °F | 86 % | 8 mph | - | 28.35 in | 0 in | ||
| 6/3/2021 | 74 °F / 61 °F | 68 °F / 61 °F | 93 % | 7 mph | - | 28.27 in | 0.33 in | ||
| 6/4/2021 | 84 °F / 59 °F | 65 °F / 59 °F | 79 % | 10 mph | - | 28.29 in | 0 in | ||
| 6/5/2021 | 86 °F / 57 °F | 68 °F / 57 °F | 78 % | 10 mph | - | 28.32 in | 0.35 in | ||
| 6/6/2021 | 82 °F / 66 °F | 70 °F / 64 °F | 86 % | 6 mph | - | 28.34 in | 0.01 in | ||
| 6/7/2021 | 81 °F / 67 °F | 72 °F / 66 °F | 88 % | 8 mph | - | 28.34 in | 0.07 in | ||
| 6/8/2021 | 83 °F / 65 °F | 72 °F / 65 °F | 89 % | 24 mph | - | 28.39 in | 1.48 in | ||
| 6/9/2021 | 85 °F / 64 °F | 71 °F / 64 °F | 88 % | 13 mph | - | 28.35 in | 0.03 in | ||
| 6/10/2021 | 80 °F / 67 °F | 69 °F / 67 °F | 88 % | 12 mph | - | 28.24 in | 0.34 in | ||
| 6/11/2021 | 78 °F / 67 °F | 72 °F / 67 °F | 93 % | 8 mph | - | 28.14 in | 1.26 in | ||
| 6/12/2021 | 87 °F / 68 °F | 70 °F / 65 °F | 80 % | 10 mph | - | 28.09 in | 0 in | ||
| 6/13/2021 | 89 °F / 63 °F | 71 °F / 63 °F | 79 % | 10 mph | - | 28.16 in | 0 in | ||
| 6/14/2021 | 91 °F / 64 °F | 71 °F / 62 °F | 77 % | 12 mph | - | 28.17 in | 0 in | ||
| 6/15/2021 | 82 °F / 59 °F | 64 °F / 48 °F | 66 % | 13 mph | - | 28.19 in | 0 in | ||
| 6/16/2021 | 82 °F / 53 °F | 58 °F / 49 °F | 65 % | 10 mph | - | 28.25 in | 0 in | ||
| 6/17/2021 | 83 °F / 51 °F | 60 °F / 51 °F | 70 % | 9 mph | - | 28.29 in | 0 in | ||
| 6/18/2021 | 88 °F / 53 °F | 66 °F / 53 °F | 71 % | 13 mph | - | 28.33 in | 0 in | ||
| 6/19/2021 | 83 °F / 60 °F | 68 °F / 60 °F | 87 % | 9 mph | - | 28.28 in | 0.02 in | ||
| 6/20/2021 | 84 °F / 65 °F | 73 °F / 62 °F | 86 % | 10 mph | - | 28.11 in | 0.93 in | ||
| 6/21/2021 | 87 °F / 65 °F | 71 °F / 65 °F | 83 % | 18 mph | - | 28.15 in | 4.31 in | ||
| 6/22/2021 | 77 °F / 56 °F | 67 °F / 53 °F | 81 % | 14 mph | - | 28.17 in | 1.92 in | ||
| 6/23/2021 | 81 °F / 51 °F | 62 °F / 51 °F | 76 % | 9 mph | - | 28.36 in | 0 in | ||
| 6/24/2021 | 82 °F / 56 °F | 63 °F / 56 °F | 78 % | 9 mph | - | 28.45 in | 0 in | ||
| 6/25/2021 | 83 °F / 59 °F | 65 °F / 59 °F | 76 % | 7 mph | - | 28.44 in | 0 in | ||
| 6/26/2021 | 84 °F / 56 °F | 68 °F / 56 °F | 77 % | 8 mph | - | 28.41 in | 0 in | ||
| 6/27/2021 | 82 °F / 65 °F | 73 °F / 65 °F | 88 % | 16 mph | - | 28.41 in | 0.22 in | ||
| 6/28/2021 | 87 °F / 63 °F | 75 °F / 63 °F | 87 % | 10 mph | - | 28.45 in | 0.41 in | ||
| 6/29/2021 | 83 °F / 65 °F | 73 °F / 65 °F | 91 % | 7 mph | - | 28.46 in | 0.32 in | ||
| 6/30/2021 | 88 °F / 62 °F | 71 °F / 62 °F | 78 % | 8 mph | - | 28.43 in | 0 in |